Hourly Weather Koziniec

Today, 26 October, Monday

Time Temperature Precipitation Wind Pressure Humidity
00:00 +10°C° 0 mm 1 mps 726 mmHg 92%
01:00 +10°C° 0 mm 1 mps 726 mmHg 92%
02:00 +10°C° 0 mm 1 mps 725 mmHg 92%
03:00 +10°C° 0 mm 1 mps 725 mmHg 92%
04:00 +9°C° 0 mm 2 mps 725 mmHg 92%
05:00 +10°C° 0 mm 1 mps 725 mmHg 91%
06:00 +10°C° 0 mm 1 mps 725 mmHg 91%
07:00 +10°C° 0 mm 1 mps 724 mmHg 90%
08:00 +12°C° 0 mm 2 mps 724 mmHg 82%
09:00 +14°C° 0 mm 2 mps 724 mmHg 75%
10:00 +16°C° 0 mm 2 mps 724 mmHg 67%
11:00 +16°C° 0 mm 2 mps 724 mmHg 65%
12:00 +17°C° 0 mm 2 mps 724 mmHg 63%
13:00 +17°C° 0 mm 2 mps 724 mmHg 61%
14:00 +16°C° 0 mm 2 mps 724 mmHg 65%
15:00 +15°C° 0 mm 2 mps 723 mmHg 70%
16:00 +15°C° 0 mm 2 mps 723 mmHg 74%
17:00 +14°C° 0 mm 2 mps 723 mmHg 77%
18:00 +13°C° 0 mm 2 mps 724 mmHg 80%
19:00 +13°C° 0 mm 1 mps 724 mmHg 83%
20:00 +13°C° 0 mm 1 mps 724 mmHg 83%
21:00 +13°C° 0 mm 1 mps 724 mmHg 83%
22:00 +13°C° 0 mm 1 mps 724 mmHg 83%
23:00 +12°C° 0 mm 1 mps 724 mmHg 86%

Tomorrow, 27 October, Tuesday

Time Temperature Precipitation Wind Pressure Humidity
00:00 +12°C° 0 mm 1 mps 724 mmHg 88%
01:00 +10°C° 0 mm 2 mps 724 mmHg 90%
02:00 +10°C° 0 mm 2 mps 724 mmHg 90%
03:00 +10°C° 0 mm 2 mps 724 mmHg 90%
04:00 +10°C° 0 mm 2 mps 724 mmHg 90%
05:00 +10°C° 0 mm 2 mps 725 mmHg 89%
06:00 +10°C° 0 mm 2 mps 725 mmHg 89%
07:00 +10°C° 0 mm 2 mps 725 mmHg 88%
08:00 +13°C° 0 mm 2 mps 725 mmHg 80%
09:00 +15°C° 0 mm 2 mps 725 mmHg 72%
10:00 +17°C° 0 mm 3 mps 726 mmHg 65%
11:00 +18°C° 0 mm 3 mps 726 mmHg 61%
12:00 +18°C° 0 mm 3 mps 726 mmHg 57%
13:00 +19°C° 0 mm 3 mps 726 mmHg 53%
14:00 +18°C° 0 mm 3 mps 726 mmHg 59%
15:00 +17°C° 0 mm 2 mps 726 mmHg 64%
16:00 +16°C° 0 mm 1 mps 725 mmHg 70%
17:00 +15°C° 0 mm 1 mps 726 mmHg 73%
18:00 +14°C° 0 mm 1 mps 726 mmHg 75%
19:00 +13°C° 0 mm 2 mps 726 mmHg 78%
20:00 +13°C° 0 mm 2 mps 727 mmHg 79%
21:00 +13°C° 0 mm 2 mps 727 mmHg 81%
22:00 +12°C° 0 mm 2 mps 727 mmHg 82%
23:00 +12°C° 0 mm 1 mps 727 mmHg 85%

Day after tomorrow, 28 October, Wednesday

Time Temperature Precipitation Wind Pressure Humidity
00:00 +11°C° 0 mm 1 mps 727 mmHg 88%
01:00 +11°C° 0 mm 1 mps 728 mmHg 91%
02:00 +10°C° 0 mm 1 mps 728 mmHg 91%
03:00 +9°C° 0 mm 0 mps 728 mmHg 92%
04:00 +9°C° 0 mm 0 mps 728 mmHg 92%
05:00 +9°C° 0 mm 0 mps 728 mmHg 92%
06:00 +9°C° 0 mm 0 mps 728 mmHg 92%
07:00 +9°C° 0 mm 0 mps 728 mmHg 92%
08:00 +10°C° 0 mm 0 mps 729 mmHg 86%
09:00 +13°C° 0 mm 1 mps 729 mmHg 79%
10:00 +15°C° 0 mm 1 mps 729 mmHg 73%
11:00 +16°C° 0 mm 1 mps 729 mmHg 70%
12:00 +16°C° 0 mm 1 mps 729 mmHg 67%
13:00 +18°C° 0 mm 1 mps 729 mmHg 65%
14:00 +16°C° 0 mm 1 mps 728 mmHg 70%
15:00 +15°C° 0 mm 1 mps 728 mmHg 76%
16:00 +14°C° 0 mm 1 mps 728 mmHg 82%
17:00 +13°C° 0 mm 1 mps 728 mmHg 84%
18:00 +13°C° 0 mm 1 mps 728 mmHg 87%
19:00 +12°C° 0 mm 1 mps 729 mmHg 89%
20:00 +12°C° 0 mm 1 mps 729 mmHg 90%
21:00 +11°C° 0 mm 1 mps 729 mmHg 91%
22:00 +11°C° 0 mm 1 mps 729 mmHg 92%
23:00 +11°C° 0 mm 1 mps 729 mmHg 93%

29 October, Thursday

Time Temperature Precipitation Wind Pressure Humidity
00:00 +10°C° 0 mm 1 mps 729 mmHg 93%
01:00 +10°C° 0 mm 1 mps 729 mmHg 94%
02:00 +10°C° 0 mm 1 mps 729 mmHg 93%
03:00 +10°C° 0 mm 1 mps 729 mmHg 93%
04:00 +10°C° 0 mm 1 mps 729 mmHg 93%
05:00 +10°C° 0 mm 1 mps 730 mmHg 91%
06:00 +10°C° 0 mm 1 mps 730 mmHg 89%
07:00 +10°C° 0 mm 1 mps 730 mmHg 87%
08:00 +11°C° 0 mm 1 mps 730 mmHg 80%
09:00 +13°C° 0 mm 1 mps 731 mmHg 72%
10:00 +15°C° 0 mm 1 mps 731 mmHg 65%
11:00 +15°C° 0 mm 2 mps 731 mmHg 63%
12:00 +16°C° 0 mm 3 mps 731 mmHg 61%
13:00 +16°C° 0 mm 3 mps 731 mmHg 59%
14:00 +14°C° 0 mm 3 mps 731 mmHg 64%
15:00 +14°C° 0 mm 2 mps 731 mmHg 70%
16:00 +13°C° 0 mm 1 mps 731 mmHg 76%
17:00 +12°C° 0 mm 2 mps 732 mmHg 78%
18:00 +12°C° 0 mm 2 mps 732 mmHg 81%
19:00 +10°C° 0 mm 2 mps 732 mmHg 83%
20:00 +10°C° 0 mm 2 mps 733 mmHg 84%
21:00 +9°C° 0 mm 2 mps 733 mmHg 85%
22:00 +9°C° 0 mm 2 mps 733 mmHg 86%
23:00 +9°C° 0 mm 2 mps 733 mmHg 86%

30 October, Friday

Time Temperature Precipitation Wind Pressure Humidity
00:00 +8°C° 0 mm 2 mps 733 mmHg 86%
01:00 +8°C° 0 mm 2 mps 734 mmHg 86%
02:00 +8°C° 0 mm 2 mps 734 mmHg 86%
03:00 +8°C° 0 mm 2 mps 734 mmHg 86%
04:00 +8°C° 0 mm 3 mps 734 mmHg 85%
05:00 +8°C° 0 mm 3 mps 734 mmHg 85%
06:00 +8°C° 0 mm 3 mps 734 mmHg 84%
07:00 +8°C° 0 mm 3 mps 734 mmHg 83%
08:00 +10°C° 0 mm 3 mps 734 mmHg 78%
09:00 +11°C° 0 mm 4 mps 734 mmHg 72%
10:00 +13°C° 0 mm 4 mps 735 mmHg 67%
11:00 +13°C° 0 mm 4 mps 735 mmHg 66%
12:00 +14°C° 0 mm 4 mps 735 mmHg 65%
13:00 +14°C° 0 mm 3 mps 735 mmHg 65%
14:00 +14°C° 0 mm 3 mps 734 mmHg 68%
15:00 +13°C° 0 mm 3 mps 734 mmHg 72%
16:00 +13°C° 0 mm 2 mps 734 mmHg 75%
17:00 +13°C° 0 mm 2 mps 734 mmHg 76%
18:00 +12°C° 0 mm 2 mps 734 mmHg 78%
19:00 +10°C° 0 mm 2 mps 735 mmHg 79%
20:00 +10°C° 0 mm 2 mps 735 mmHg 78%
21:00 +10°C° 0 mm 2 mps 735 mmHg 77%
22:00 +10°C° 0 mm 2 mps 735 mmHg 76%
23:00 +9°C° 0 mm 2 mps 735 mmHg 76%

31 October, Saturday

Time Temperature Precipitation Wind Pressure Humidity
00:00 +9°C° 0 mm 2 mps 735 mmHg 75%
01:00 +10°C° 0 mm 1 mps 735 mmHg 75%
02:00 +10°C° 0 mm 1 mps 734 mmHg 75%
03:00 +9°C° 0 mm 1 mps 734 mmHg 75%
04:00 +9°C° 0 mm 1 mps 734 mmHg 75%
05:00 +9°C° 0 mm 1 mps 734 mmHg 75%
06:00 +9°C° 0 mm 1 mps 734 mmHg 75%
07:00 +9°C° 0 mm 1 mps 734 mmHg 74%
Show more